Date,TemperatureHighF,TemperatureAvgF,TemperatureLowF,DewpointHighF,DewpointAvgF,DewpointLowF,HumidityHigh,HumidityAvg,HumidityLow,PressureMaxIn,PressureMinIn,WindSpeedMaxMPH,WindSpeedAvgMPH,GustSpeedMaxMPH,PrecipitationSumIn
2013-3-1,46.9,38.7,30.9,34.5,30.7,27.0,94,74,52,30.23,30.13,15,1,15,0.00
2013-3-2,38.2,34.8,29.5,30.2,27.0,22.0,90,73,62,30.30,30.19,18,2,18,0.00
2013-3-3,52.8,38.5,25.5,29.7,24.9,21.3,89,60,32,30.32,30.14,15,1,15,0.00
2013-3-4,71.2,55.1,38.5,54.8,41.9,27.3,80,63,38,30.14,29.88,19,2,19,0.00
2013-3-5,68.5,56.8,46.3,61.3,48.5,28.4,90,75,48,30.24,29.90,21,2,21,0.02
2013-3-6,52.2,44.6,39.3,33.1,29.7,25.6,75,56,43,30.38,30.24,19,2,19,0.00
2013-3-7,59.9,45.0,33.9,37.2,33.5,29.6,87,66,35,30.42,30.29,8,0,8,0.00
2013-3-8,69.0,52.1,34.5,44.0,38.3,32.4,93,64,31,30.37,30.19,8,0,8,0.00
2013-3-9,75.5,61.4,49.7,55.6,43.8,30.1,83,56,21,30.22,29.99,15,2,15,0.00
2013-3-10,77.4,63.6,54.8,63.2,57.9,53.2,96,83,60,30.02,29.83,19,2,19,1.65
2013-3-11,55.7,48.7,41.4,52.6,42.2,37.6,96,79,53,30.07,29.91,16,1,16,0.66
2013-3-12,62.9,47.6,34.2,41.6,36.4,30.4,96,69,31,30.27,30.07,11,1,11,0.00
2013-3-13,57.7,48.8,38.8,39.1,32.1,23.2,92,56,27,30.45,30.27,18,2,18,0.00
2013-3-14,67.8,50.9,34.3,40.1,33.1,28.0,82,54,28,30.49,30.28,12,0,12,0.00
2013-3-15,79.0,62.3,46.3,48.8,42.8,36.8,77,51,30,30.28,30.06,12,1,12,0.00
2013-3-16,79.3,65.3,52.2,55.8,51.4,47.0,90,63,38,30.08,29.92,12,1,12,0.00
2013-3-17,78.6,65.3,53.0,60.9,56.5,49.9,94,75,50,30.00,29.80,15,1,15,0.00
2013-3-18,83.3,67.0,53.6,66.9,61.3,50.1,93,83,52,30.02,29.74,19,2,19,0.12
2013-3-19,70.8,57.2,43.6,50.0,40.8,33.5,92,59,27,30.15,30.02,16,1,16,0.00
2013-3-20,65.8,55.4,49.6,39.6,32.5,24.7,64,43,22,30.24,30.10,14,1,14,0.00
2013-3-21,60.4,50.0,41.4,36.9,31.1,22.6,72,49,32,30.13,29.91,10,1,10,0.00
2013-3-22,52.1,47.7,41.9,47.9,42.3,34.9,94,82,53,29.99,29.86,14,1,14,0.37
2013-3-23,75.2,62.0,52.1,67.1,58.4,48.0,96,88,72,29.88,29.60,9,0,10,0.51
2013-3-24,59.6,52.0,40.9,58.1,45.0,29.5,97,79,52,30.05,29.63,22,3,22,0.17
2013-3-25,51.2,41.8,32.9,30.8,27.3,21.4,81,58,38,30.33,30.05,20,2,20,0.00
2013-3-26,48.7,39.9,32.3,30.3,27.3,24.8,79,61,44,30.44,30.33,14,1,14,0.00
2013-3-27,60.4,43.5,28.2,35.4,29.7,25.4,93,63,29,30.49,30.33,9,0,9,0.00
2013-3-28,71.2,52.0,34.7,41.4,36.2,31.8,91,60,27,30.41,30.27,8,0,8,0.00
2013-3-29,74.5,59.9,46.4,50.2,44.7,38.9,85,60,33,30.33,30.18,9,0,9,0.00
2013-3-30,73.0,62.1,53.7,59.9,54.1,48.8,95,77,47,30.20,30.00,13,1,13,0.08
2013-3-31,71.7,60.8,55.1,64.2,58.2,53.7,96,91,73,30.04,29.85,12,0,12,0.34